Home   Weather   Detroit   Past weeks

Flag for USA Past Weather in Detroit, Michigan, USA — Yesterday and Last 2 Weeks

43 °F

Light rain. Mostly cloudy.

Feels Like: 38 °F
Forecast: 36 / 54 °F
Wind: 8 mph from Northwest

Location: Detroit City Airport

Current Time: Oct 27, 2016 at 8:50:43 PM

Latest Report: Oct 27, 2016 at 7:53 PM

Visibility: 7 mi

Pressure: 30.22 "Hg

Humidity: 93%

Dew Point: 41 °F

Location of DetroitLocation

Past Weather in Detroit — Graph


Detroit Temperature Yesterday

Maximum temperature yesterday: 43 °F (at 10:53 AM)
Minimum temperature yesterday: 35 °F (at 3:53 AM)
Average temperature yesterday: 40 °F

High & Low Weather Summary for the Past Weeks

High79 °F (Oct 17, 2:53 PM)100% (Oct 17, 1:53 AM)30.49 "Hg (Oct 17, 1:53 AM)
Low35 °F (Oct 26, 3:53 AM)43% (Oct 25, 3:53 PM)29.59 "Hg (Oct 18, 5:53 AM)
Average55 °F78%30.07 "Hg
* Reported Oct 12 6:53 PM — Oct 27 6:53 PM, Detroit, Weather by CustomWeather, © 2016

Note: Actual official high and low records may vary slightly from our data, if they occured in-between our weather recording intervals... More about our weather records


Detroit Weather History for the Previous 24 Hours

Scroll right to see more
Time TempWeatherWind HumidityBarometerVisibility
6:53 PM
Thu, Oct 27
45 °FOvercast.8 mph82%30.19 "Hg10 mi
5:53 PM46 °FMore clouds than sun.7 mph77%30.16 "Hg10 mi
4:53 PM46 °FMostly cloudy.6 mph77%30.15 "Hg10 mi
3:53 PM46 °FMostly cloudy.12 mph83%30.12 "Hg10 mi
2:53 PM46 °FOvercast.9 mph86%30.09 "Hg10 mi
1:53 PM46 °FOvercast.10 mph89%30.08 "Hg10 mi
12:53 PM44 °FOvercast.10 mph93%30.07 "Hg10 mi
11:53 AM43 °FLow clouds.6 mph97%30.05 "Hg9 mi
10:53 AM43 °FLow clouds.9 mph97%30.01 "Hg10 mi
9:53 AM43 °FFog.8 mph100%30.00 "Hg2 mi
8:53 AM44 °FFog.9 mph100%29.97 "Hg4 mi
7:53 AM45 °FLight rain. Fog.7 mph100%29.95 "Hg2 mi
6:53 AM48 °FFog.5 mph100%29.95 "Hg4 mi
5:53 AM47 °FMostly cloudy.6 mph100%29.97 "Hg9 mi
4:53 AM47 °FLow clouds.10 mph100%29.98 "Hg9 mi
3:53 AM47 °FFog.12 mph100%30.02 "Hg3 mi
2:53 AM46 °FLight rain. Fog.15 mph100%30.06 "Hg5 mi
2:01 AM43 °FLight rain. Fog.10 mph100%30.07 "Hg6 mi
12:53 AM42 °FLight rain. Fog.17 mph100%30.12 "Hg4 mi
11:53 PM
Wed, Oct 26
42 °FLight rain. Fog.9 mph100%30.17 "Hg4 mi
10:53 PM41 °FMostly cloudy.9 mph100%30.20 "Hg9 mi
9:53 PM41 °FLight rain. Fog.10 mph100%30.24 "Hg5 mi
8:53 PM43 °FLight rain. Fog.10 mph97%30.24 "Hg6 mi
Weather by CustomWeather, © 2016

See weather overviewHow to use our weather pages